ECHOSTAR 3

导读 | 星芒AI

ECHOSTAR 3 是一颗由 Hughes Aircraft Company 设计制造的通信卫星,于1994年发射,用于提供直接到户(DTH)的电视广播服务。该卫星位于西经119度的轨道位置,主要服务于美国地区,支持EchoStar 公司的DirecTV 服务。ECHOSTAR 3 搭载了多个C波段和Ku波段转发器,具备高功率和高灵活性,为用户提供高质量的电视信号传输。作为早期DTH服务的重要组成部分,它在推动卫星电视普及方面发挥了关键作用。

基本信息
目录编号:
25004
目录名称:
ECHOSTAR 3
国际标识:
1997-059A
轨道中心:
EARTH
卫星名称:
ECHOSTAR 3
卫星全名:
--
卫星状态:
在轨 (已飞行10251 天)
发射日期:
1997-10-05 UTC
国别 :
美国 (US)
星等 :
--
轨道信息
数据来源 国际轨道数据 AOE轨道数据
星历时间 2025-10-28T12:21:35+0800
1天前
查看轨道信息
2025-10-29T11:00:00+0800
4小时前
查看轨道信息
半长轴 42560.618km 42560.704km
偏心率 0.0010497 0.0010393
轨道倾角 8.982° 8.984°
近地点辐角 341.015° 340.892°
升交点赤经 58.011° 58.002°
平近点角 37.931° 13.854°
近地点 36137.807km 36138.335km
远地点 36227.159km 36226.803km
周期 1456.370分钟 1456.374分钟
每日圈数 0.98876 0.988757
详细信息
使用方式:
暂无
2D轨道图
3D轨道图
轨道高度分析图
轨道倾角分析图
轨道综合分析图
查看轨道综合分析图